{"data":{"norad_id":62866,"epoch":"2026-09-21T03:43:58.508256Z","epoch_age_seconds":111549,"freshness":"FRESH","line1":"1 62866U 25022N   26264.15553829  .00010633  00000+0  32539-3 0  9994","line2":"2 62866  53.1598 296.9550 0001702  96.8080 263.3116 15.34399811 91891","mean_motion":15.34399811,"eccentricity":0.0001702,"inclination_deg":53.1598,"raan_deg":296.955,"arg_perigee_deg":96.808,"mean_anomaly_deg":263.3116,"bstar":0.00032539,"rev_number":9189,"period_min":93.847769641051,"perigee_km":461.5394908505,"apogee_km":463.86811305949,"semimajor_km":6840.840801955,"source":"CELESTRAK","updated_at":"2026-09-22T09:00:49.678156Z"}}